Location: Équennes
(49.7375°N, 1.9622°E)
Time: 18:23:42
(UTC+00:00)

Cosmos 2278 - Pass Details

Date: 03 October 2023
Orbit: 838 x 853 km, 71.1° (Epoch: 08 December)

Event Time Altitude Azimuth Distance (km) Brightness Sun altitude
Rises 23:50:57 0° 333° (NNW) 3,429 7.5 -44.4°
Reaches altitude 10° 23:53:34 10° 341° (NNW) 2,491 6.7 -44.4°
Enters shadow 23:54:21 14° 344° (NNW) 2,223 6.4 -44.3°
